Location: Albany
(35.0000°S, 118.0000°E)
Time: 05:03:25
(UTC-04:00)

Cosmos 1626 - Visible Passes

Search period start: 30 July 2014 00:00
Search period end: 09 August 2014 00:00
Orbit: 517 x 523 km, 82.5° (Epoch: 29 July)

Date Brightness Start Highest point End Pass type
(mag) Time Alt. Az. Time Alt. Az. Time Alt. Az.
30 Jul 5.2 06:36:31 10° SW 06:39:22 20° W 06:42:12 10° NW visible
31 Jul 5.0 06:22:33 10° SW 06:25:41 23° W 06:28:47 10° NW visible
31 Jul 2.4 18:33:35 10° NNW 18:37:21 52° W 18:41:12 10° S visible
01 Aug 4.7 06:08:38 10° SSW 06:11:59 27° W 06:15:17 10° NNW visible
01 Aug 2.2 18:19:46 10° NNW 18:23:36 63° W 18:27:30 10° S visible
02 Aug 4.4 05:54:45 10° SSW 05:58:16 32° W 06:01:45 10° NNW visible
02 Aug 2.1 18:06:00 10° N 18:09:51 77° W 18:13:47 10° S visible
03 Aug 2.2 17:52:14 10° N 17:56:06 88° E 18:00:02 10° S visible
04 Aug 2.4 17:38:30 10° N 17:42:21 73° E 17:46:16 10° S visible
05 Aug 2.8 17:24:48 10° N 17:28:36 60° E 17:32:28 10° SSE visible
06 Aug 3.2 17:11:07 10° NNE 17:14:51 49° E 17:18:39 10° SSE visible
07 Aug 3.5 16:57:28 10° NNE 17:01:06 40° E 17:04:48 10° SSE visible
08 Aug 3.9 16:43:51 10° NNE 16:47:21 34° E 16:50:54 10° SSE visible
08 Aug 4.0 18:21:29 10° W 18:23:15 13° WSW 18:25:03 10° SW visible
